Regional Weather Roundup
Issued by NWS

Home | Current Version | Previous Version | Text Only | Print | Product List | Glossary On
Versions: 1 2 3 4 5 6 7 8 9 10 11 12 13 14 15 16 17 18 19 20 21 22 23 24 25 26 27 28 29 30 31 32 33 34 35 36 37 38 39 40 41 42 43 44 45 46 47 48 49 50
000
ASUS43 KTOP 031159
RWRKS

WEATHER ROUNDUP FOR KANSAS
NATIONAL WEATHER SERVICE GOODLAND KS
700 AM CDT TUE AUG 03 2021

NOTE:  "FAIR" INDICATES FEW OR NO CLOUDS BELOW 12,000 FEET WITH NO
SIGNIFICANT WEATHER AND/OR OBSTRUCTIONS TO VISIBILITY.

KSZ001>006-013>018-027>032-041>047-031300-
NORTHWEST KANSAS

CITY           SKY/WX    TMP DP  RH WIND       PRES   REMARKS
GOODLAND       CLEAR     65  50  58 SW15      30.12S
6HR MIN TEMP:  61; 6HR MAX TEMP:  67;

HAYS           MOCLDY    58  51  78 SE7       30.14R
HILL CITY      CLEAR     56  51  84 CALM      30.13R
6HR MIN TEMP:  55; 6HR MAX TEMP:  63;

RUSSELL        MOCLDY    60  51  72 SE8       30.13
6HR MIN TEMP:  58; 6HR MAX TEMP:  65;

$$

KSZ061>065-074>080-084>089-031300-
SOUTHWEST KANSAS

CITY           SKY/WX    TMP DP  RH WIND       PRES   REMARKS
DODGE CITY     CLEAR     60  52  74 S7        30.14R
6HR MIN TEMP:  59; 6HR MAX TEMP:  65;

GARDEN CITY    CLEAR     60  55  83 W10       30.13S
6HR MIN TEMP:  57; 6HR MAX TEMP:  62;

GREAT BEND     CLEAR     56  53  90 CALM      30.14S
LIBERAL        CLEAR     59  54  83 W6        30.16R
$$

KSZ066>073-081>083-090>101-031300-
SOUTHEAST KANSAS

CITY           SKY/WX    TMP DP  RH WIND       PRES   REMARKS
CHANUTE        CLEAR     62  60  93 CALM      30.11R FOG
6HR MIN TEMP:  62; 6HR MAX TEMP:  70;

COFFEYVILLE    CLEAR     62  60  93 N3        30.08R FOG
6HR MIN TEMP:  61; 6HR MAX TEMP:  66;

HUTCHINSON     CLEAR     58  53  84 E5        30.12S HAZE
6HR MIN TEMP:  56; 6HR MAX TEMP:  65;

NEWTON         CLEAR    N/A N/A N/A E6        30.14R
PARSONS        CLEAR     63  62  97 CALM      30.10S FOG
6HR MIN TEMP:  61; 6HR MAX TEMP:  66;

WICHITA INTL   PTCLDY    62  58  86 CALM      30.12R HAZE
6HR MIN TEMP:  59; 6HR MAX TEMP:  68;

WICHITA JABRA  CLEAR     58  55  90 N3        30.12R FOG
6HR MIN TEMP:  57; 6HR MAX TEMP:  66;

WINFIELD       CLEAR     60  57  89 CALM      30.12R FOG
6HR MIN TEMP:  59; 6HR MAX TEMP:  66;

$$

KSZ007>012-019>026-033>040-048>060-102>105-031300-
NORTHEAST KANSAS

CITY           SKY/WX    TMP DP  RH WIND       PRES   REMARKS
CONCORDIA      CLEAR     57  54  89 E5        30.14R FOG
6HR MIN TEMP:  56; 6HR MAX TEMP:  62;

EMPORIA        MOCLDY    60  59  96 CALM      30.13R FOG
6HR MIN TEMP:  58; 6HR MAX TEMP:  65;

LAWRENCE       CLEAR     56  55  97 NW3       30.13R FOG
6HR MIN TEMP:  54; 6HR MAX TEMP:  61;

MANHATTAN      CLEAR     57  56  96 CALM      30.14R FOG
6HR MIN TEMP:  56; 6HR MAX TEMP:  62;

OLATHE IND     CLEAR     62  56  80 NE5       30.13S
6HR MIN TEMP:  59; 6HR MAX TEMP:  67;

OLATHE EXE     CLEAR     63  58  83 NE7       30.13R
6HR MIN TEMP:  62; 6HR MAX TEMP:  67;

SALINA         CLEAR     60  55  83 CALM      30.13S HAZE
6HR MIN TEMP:  60; 6HR MAX TEMP:  66;

TOPEKA BILLARD CLEAR     58  55  90 CALM      30.13R
6HR MIN TEMP:  57; 6HR MAX TEMP:  64;

TOPEKA FORBES  CLEAR     58  57  97 CALM      30.13R FOG
6HR MIN TEMP:  57; 6HR MAX TEMP:  65;

$$



USA.gov is the U.S. government's official web portal to all federal, state and local government web resources and services.